Date String (YYYY-MM-DD hh:mm:ss) UTC,Instrument flags,Ambient pressure (hPa),Sample flow (lpm),Bypass flow (lpm),Sample temperature (°C),Ambient temperature (°C),ASC tube jacket temperature (°C),LED temperature (°C),Box temperature (°C),Sample RH (%),Span deviation,Mass concentration (μg/m³),Mass concentration (μg/m³),Mass concentration (μg/m³)
DateTimeUTC,F1_M11,P_M11,Q1_M11,Q2_M11,T1_M11,T2_M11,T3_M11,T4_M11,T5_M11,U1_M11,ZSPAN_M11,X0_M11,X2_M11,X1_M11
2022-08-15 22:00:00,,0829.7,5.00,0.00,31.2,27.1,00.0,39.6,31.6,33.7,0000.0,0006.88,0003.53,0002.98
2022-08-15 22:01:00,,0829.7,4.99,0.00,31.0,27.1,00.0,39.6,31.5,33.8,0000.0,0006.61,0003.47,0002.93
2022-08-15 22:02:00,,0829.7,5.01,0.00,30.9,27.3,00.0,39.5,31.5,34.7,0000.0,0006.46,0003.42,0002.87
2022-08-15 22:03:00,,0829.6,5.00,0.00,30.9,27.4,00.0,39.5,31.6,35.0,0000.0,0006.15,0003.35,0002.80
2022-08-15 22:04:00,,0829.6,5.00,0.00,30.9,27.6,00.0,39.4,31.7,34.7,0000.0,0005.87,0003.29,0002.72
2022-08-15 22:05:00,,0829.6,5.00,0.00,31.0,27.7,00.0,39.4,31.7,34.3,0000.0,0005.72,0003.24,0002.64
2022-08-15 22:06:00,,0829.7,4.99,0.00,31.0,27.9,00.0,39.4,31.7,34.1,0000.0,0005.39,0003.14,0002.57
2022-08-15 22:07:00,,0829.7,5.01,0.00,31.0,28.0,00.0,39.4,31.7,33.9,0000.0,0005.10,0003.06,0002.49
2022-08-15 22:08:00,,0829.6,5.00,0.00,31.0,28.1,00.0,39.4,31.8,33.5,0000.0,0004.33,0003.00,0002.42
2022-08-15 22:09:00,,0829.6,5.00,0.00,31.0,28.2,00.0,39.4,31.8,33.3,0000.0,0004.34,0002.97,0002.35
2022-08-15 22:10:00,,0829.7,5.00,0.00,30.9,28.3,00.0,39.4,31.9,33.2,0000.0,0004.22,0002.90,0002.28
2022-08-15 22:11:00,,0829.6,5.00,0.00,30.9,28.4,00.0,39.4,31.9,33.4,0000.0,0004.11,0002.83,0002.20
2022-08-15 22:12:00,,0829.6,5.00,0.00,30.9,28.4,00.0,39.4,31.9,33.7,0000.0,0004.06,0002.78,0002.12
2022-08-15 22:13:00,,0829.6,5.00,0.00,30.9,28.5,00.0,39.4,31.9,33.6,0000.0,0003.92,0002.71,0002.06
2022-08-15 22:14:00,,0829.7,5.00,0.00,30.9,28.6,00.0,39.4,32.0,33.8,0000.0,0003.86,0002.66,0002.02
2022-08-15 22:15:00,,0829.7,5.00,0.00,30.9,28.6,00.0,39.4,32.0,33.6,0000.0,0003.73,0002.57,0001.97
2022-08-15 22:16:00,,0829.8,5.01,0.00,30.9,28.7,00.0,39.4,32.0,33.3,0000.0,0003.67,0002.53,0001.94
2022-08-15 22:17:00,,0829.8,4.99,0.00,30.8,28.7,00.0,39.4,32.0,33.8,0000.0,0003.90,0002.47,0001.91
2022-08-15 22:18:00,,0829.8,4.99,0.00,30.8,28.6,00.0,39.3,32.0,33.7,0000.0,0004.54,0002.42,0001.89
2022-08-15 22:19:00,,0829.8,5.00,0.00,30.8,28.0,00.0,39.3,31.8,33.9,0000.0,0004.50,0002.40,0001.90
2022-08-15 22:20:00,,0829.8,5.00,0.00,30.7,27.6,00.0,39.2,31.7,33.8,0000.0,0004.39,0002.36,0001.91
2022-08-15 22:21:00,,0829.8,5.01,0.00,30.6,27.5,00.0,39.2,31.6,33.9,0000.0,0004.38,0002.34,0001.92
2022-08-15 22:22:00,,0829.8,5.00,0.00,30.5,27.6,00.0,39.2,31.6,34.3,0000.0,0004.37,0002.34,0001.92
2022-08-15 22:23:00,,0829.8,5.00,0.00,30.4,27.7,00.0,39.1,31.6,34.6,0000.0,0004.38,0002.34,0001.94
2022-08-15 22:24:00,,0829.8,5.00,0.00,30.4,27.8,00.0,39.1,31.7,35.2,0000.0,0004.37,0002.35,0001.95
2022-08-15 22:25:00,,0829.8,4.99,0.00,30.5,27.9,00.0,39.1,31.8,34.8,0000.0,0004.42,0002.36,0001.94
2022-08-15 22:26:00,,0829.9,5.01,0.00,30.7,28.0,00.0,39.1,31.9,34.1,0000.0,0004.51,0002.39,0001.94
2022-08-15 22:27:00,,0829.9,4.99,0.00,30.7,28.2,00.0,39.1,31.9,33.5,0000.0,0004.43,0002.38,0001.94
2022-08-15 22:28:00,,0829.9,4.99,0.00,30.8,28.3,00.0,39.1,31.9,33.0,0000.0,0004.13,0002.38,0001.95
2022-08-15 22:29:00,,0829.9,5.01,0.00,30.8,28.4,00.0,39.1,31.9,33.5,0000.0,0003.34,0002.38,0001.95
2022-08-15 22:30:00,,0829.9,5.00,0.00,30.8,28.5,00.0,39.1,31.9,34.0,0000.0,0003.36,0002.37,0001.92
2022-08-15 22:31:00,,0829.9,4.99,0.00,30.8,28.5,00.0,39.1,31.9,33.5,0000.0,0003.41,0002.38,0001.91
2022-08-15 22:32:00,,0829.9,4.99,0.00,30.8,28.6,00.0,39.1,32.0,32.9,0000.0,0003.57,0002.43,0001.91
2022-08-15 22:33:00,,0830.0,5.00,0.00,30.8,28.7,00.0,39.2,32.0,32.9,0000.0,0003.56,0002.42,0001.91
2022-08-15 22:34:00,,0830.0,5.00,0.00,30.8,28.7,00.0,39.2,32.0,33.3,0000.0,0003.57,0002.41,0001.91
2022-08-15 22:35:00,,0830.0,5.01,0.00,30.8,28.4,00.0,39.2,31.9,33.5,0000.0,0003.61,0002.41,0001.90
2022-08-15 22:36:00,,0830.0,5.00,0.00,30.7,27.8,00.0,39.1,31.8,33.3,0000.0,0003.48,0002.38,0001.91
2022-08-15 22:37:00,,0829.9,5.01,0.00,30.6,27.6,00.0,39.1,31.7,33.5,0000.0,0003.39,0002.36,0001.92
2022-08-15 22:38:00,,0829.9,5.00,0.00,30.5,27.6,00.0,39.1,31.5,33.9,0000.0,0003.46,0002.36,0001.92
2022-08-15 22:39:00,,0829.9,5.00,0.00,30.4,27.6,00.0,39.0,31.6,34.0,0000.0,0003.50,0002.36,0001.91
2022-08-15 22:40:00,,0830.0,5.00,0.00,30.4,27.8,00.0,39.0,31.6,34.1,0000.0,0003.44,0002.34,0001.91
2022-08-15 22:41:00,,0829.9,5.00,0.00,30.3,27.9,00.0,39.0,31.6,34.2,0000.0,0003.43,0002.34,0001.91
2022-08-15 22:42:00,,0829.9,5.00,0.00,30.3,28.0,00.0,39.0,31.7,33.9,0000.0,0003.40,0002.33,0001.91
2022-08-15 22:43:00,,0829.9,5.01,0.00,30.3,28.2,00.0,39.0,31.7,33.9,0000.0,0003.27,0002.30,0001.90
2022-08-15 22:44:00,,0830.0,5.01,0.00,30.3,28.3,00.0,39.0,31.7,33.8,0000.0,0003.25,0002.30,0001.91
2022-08-15 22:45:00,,0830.1,5.00,0.00,30.3,28.4,00.0,39.0,31.7,34.3,0000.0,0003.22,0002.30,0001.90
2022-08-15 22:46:00,,0830.1,4.99,0.00,30.3,28.5,00.0,38.9,31.7,34.4,0000.0,0003.17,0002.29,0001.91
2022-08-15 22:47:00,,0830.1,5.00,0.00,30.3,28.5,00.0,38.9,31.8,33.9,0000.0,0003.26,0002.31,0001.91
2022-08-15 22:48:00,,0830.1,5.00,0.00,30.3,28.6,00.0,38.9,31.8,34.2,0000.0,0003.30,0002.34,0001.92
2022-08-15 22:49:00,,0830.1,5.00,0.00,30.3,28.7,00.0,38.9,31.8,34.5,0000.0,0003.30,0002.35,0001.93
2022-08-15 22:50:00,,0830.1,5.00,0.00,30.3,28.8,00.0,38.9,31.9,34.4,0000.0,0003.54,0002.40,0001.95
2022-08-15 22:51:00,,0830.2,4.99,0.00,30.3,28.8,00.0,38.9,31.9,34.3,0000.0,0003.86,0002.47,0001.96
2022-08-15 22:52:00,,0830.2,5.00,0.00,30.3,28.6,00.0,38.9,31.8,34.4,0000.0,0003.95,0002.49,0001.97
2022-08-15 22:53:00,,0830.1,5.01,0.00,30.2,27.7,00.0,38.8,31.5,34.5,0000.0,0003.99,0002.52,0001.98
2022-08-15 22:54:00,,0830.1,4.99,0.00,30.1,27.2,00.0,38.8,31.4,34.3,0000.0,0004.44,0002.57,0002.00
2022-08-15 22:55:00,,0830.1,5.00,0.00,30.0,27.0,00.0,38.8,31.3,34.6,0000.0,0004.81,0002.60,0002.02
2022-08-15 22:56:00,,0830.1,5.00,0.00,29.9,27.1,00.0,38.7,31.3,35.2,0000.0,0004.84,0002.61,0002.03
2022-08-15 22:57:00,,0830.1,4.99,0.00,30.0,27.2,00.0,38.7,31.4,35.7,0000.0,0004.89,0002.65,0002.04
2022-08-15 22:58:00,,0830.1,5.01,0.00,30.3,27.4,00.0,38.7,31.6,35.0,0000.0,0005.05,0002.71,0002.03
2022-08-15 22:59:00,,0830.1,4.99,0.00,30.5,27.6,00.0,38.7,31.7,34.6,0000.0,0005.33,0002.74,0002.02
